This is the latest recevied weather packets stored in our database for station/object VE7OTD. If no packets are shown the sender has not sent any weather packets the latest 10 day(s).
| Time | Temp. | Humidity | Pressure | Rain* | Wind** | Luminosity | Snow |
|---|---|---|---|---|---|---|---|
| 1788277316 | 20° C | 70% | 1007.6 hPa | 0 mm | - | - | - |
| 1788275515 | 15.56° C | 94% | 1007.6 hPa | 0 mm | - | - | - |
| 1788273700 | 12.78° C | 99% | 1007.5 hPa | 0 mm | - | - | - |
| 1788271884 | 11.67° C | 99% | 1007.4 hPa | 0 mm | - | - | - |
| 1788270084 | 11.67° C | 99% | 1007.3 hPa | 0 mm | - | - | - |
| 1788268254 | 11.67° C | 99% | 1007.3 hPa | 0 mm | - | - | - |
| 1788266467 | 11.67° C | 98% | 1007.4 hPa | 0 mm | - | - | - |
| 1788264624 | 12.22° C | 95% | 1007.4 hPa | 0 mm | - | - | - |
| 1788262824 | 12.78° C | 96% | 1007.6 hPa | 0 mm | - | - | - |
| 1788261010 | 13.33° C | 97% | 1007.6 hPa | 0 mm | - | - | - |
| 1788259179 | 13.33° C | 95% | 1007.7 hPa | 0 mm | - | - | - |
| 1788257380 | 13.33° C | 96% | 1007.8 hPa | 0 mm | - | - | - |
| 1788255550 | 13.89° C | 94% | 1007.8 hPa | 0 mm | - | - | - |
| 1788253749 | 13.89° C | 95% | 1007.7 hPa | 0 mm | - | - | - |
| 1788251919 | 13.33° C | 94% | 1007.9 hPa | 0 mm | - | - | - |
| 1788250119 | 13.89° C | 93% | 1007.8 hPa | 0 mm | - | - | - |
| 1788248289 | 13.89° C | 94% | 1007.8 hPa | 0 mm | - | - | - |
| 1788246455 | 14.44° C | 92% | 1008.1 hPa | 0 mm | - | - | - |
| 1788244641 | 14.44° C | 91% | 1008.3 hPa | 0 mm | - | - | - |
| 1788242826 | 15° C | 89% | 1008.3 hPa | 0 mm | - | - | - |
| 1788241011 | 14.44° C | 90% | 1008.4 hPa | 0 mm | - | - | - |
| 1788239196 | 15° C | 85% | 1008.6 hPa | 0 mm | - | - | - |
| 1788237381 | 15.56° C | 84% | 1008.8 hPa | 0 mm | - | - | - |
| 1788235566 | 15.56° C | 83% | 1008.9 hPa | 0 mm | - | - | - |
| 1788233725 | 16.67° C | 80% | 1008.8 hPa | 0 mm | - | - | - |
* Rain latest hour (hover to see other rain measurements)
** Current wind speed in m/s (hover to see current wind gust speed)